When you browse on this site, cookies collect data to enhance your experience and personalize the content and advertising you see.
Visit our Privacy Policy to learn more. By continuing to use the site, you agree to this use of cookies and data.

Stündliche Wetter Caucel

Heute, 13 Juli, Montag

Zeit Temperatur Niederschläge Wind Luftdruck Luftfeuchtigkeit
00:00 +26°C° 0 mm 2 m/S 760 mmHg 90%
01:00 +26°C° 0 mm 2 m/S 760 mmHg 91%
02:00 +25°C° 0 mm 2 m/S 759 mmHg 93%
03:00 +25°C° 0 mm 2 m/S 759 mmHg 95%
04:00 +25°C° 0 mm 2 m/S 759 mmHg 94%
05:00 +25°C° 0 mm 2 m/S 759 mmHg 94%
06:00 +25°C° 0 mm 2 m/S 760 mmHg 94%
07:00 +28°C° 0 mm 2 m/S 760 mmHg 83%
08:00 +30°C° 0 mm 2 m/S 760 mmHg 72%
09:00 +32°C° 0 mm 2 m/S 760 mmHg 61%
10:00 +35°C° 0 mm 2 m/S 760 mmHg 54%
11:00 +37°C° 0 mm 2 m/S 760 mmHg 47%
12:00 +39°C° 0 mm 2 m/S 760 mmHg 41%
13:00 +38°C° 0.1 mm 3 m/S 759 mmHg 44%
14:00 +37°C° 0.1 mm 3 m/S 759 mmHg 46%
15:00 +36°C° 0.1 mm 4 m/S 758 mmHg 49%
16:00 +35°C° 0.2 mm 4 m/S 758 mmHg 58%
17:00 +33°C° 0.2 mm 4 m/S 758 mmHg 66%
18:00 +30°C° 0.2 mm 4 m/S 758 mmHg 74%
19:00 +29°C° 0.2 mm 4 m/S 759 mmHg 79%
20:00 +28°C° 0.2 mm 3 m/S 759 mmHg 84%
21:00 +27°C° 0.2 mm 3 m/S 760 mmHg 89%
22:00 +27°C° 0 mm 3 m/S 760 mmHg 88%
23:00 +27°C° 0 mm 3 m/S 760 mmHg 88%

Morgen, 14 Juli, Dienstag

Zeit Temperatur Niederschläge Wind Luftdruck Luftfeuchtigkeit
00:00 +26°C° 0 mm 3 m/S 760 mmHg 88%
01:00 +26°C° 0 mm 3 m/S 759 mmHg 89%
02:00 +25°C° 0 mm 2 m/S 759 mmHg 91%
03:00 +24°C° 0 mm 2 m/S 759 mmHg 92%
04:00 +24°C° 0 mm 2 m/S 759 mmHg 94%
05:00 +24°C° 0 mm 2 m/S 759 mmHg 95%
06:00 +24°C° 0 mm 2 m/S 759 mmHg 96%
07:00 +26°C° 0 mm 2 m/S 760 mmHg 84%
08:00 +29°C° 0 mm 2 m/S 760 mmHg 72%
09:00 +31°C° 0 mm 2 m/S 760 mmHg 60%
10:00 +34°C° 0 mm 3 m/S 760 mmHg 50%
11:00 +36°C° 0 mm 3 m/S 760 mmHg 40%
12:00 +38°C° 0 mm 3 m/S 760 mmHg 31%
13:00 +39°C° 0 mm 3 m/S 759 mmHg 30%
14:00 +39°C° 0 mm 3 m/S 759 mmHg 28%
15:00 +39°C° 0 mm 3 m/S 758 mmHg 27%
16:00 +37°C° 0 mm 4 m/S 758 mmHg 36%
17:00 +35°C° 0 mm 4 m/S 758 mmHg 45%
18:00 +34°C° 0 mm 4 m/S 758 mmHg 54%
19:00 +32°C° 0 mm 4 m/S 759 mmHg 59%
20:00 +30°C° 0 mm 3 m/S 759 mmHg 65%
21:00 +28°C° 0 mm 3 m/S 760 mmHg 70%
22:00 +27°C° 0 mm 3 m/S 760 mmHg 71%
23:00 +27°C° 0 mm 3 m/S 760 mmHg 72%

übermorgen, 15 Juli, Mittwoch

Zeit Temperatur Niederschläge Wind Luftdruck Luftfeuchtigkeit
00:00 +26°C° 0 mm 3 m/S 760 mmHg 73%
01:00 +25°C° 0 mm 3 m/S 760 mmHg 77%
02:00 +25°C° 0 mm 3 m/S 759 mmHg 82%
03:00 +25°C° 0 mm 3 m/S 759 mmHg 86%
04:00 +25°C° 0 mm 2 m/S 759 mmHg 88%
05:00 +25°C° 0 mm 2 m/S 759 mmHg 91%
06:00 +25°C° 0 mm 2 m/S 760 mmHg 93%
07:00 +27°C° 0 mm 2 m/S 760 mmHg 84%
08:00 +30°C° 0 mm 3 m/S 760 mmHg 75%
09:00 +33°C° 0 mm 3 m/S 761 mmHg 65%
10:00 +35°C° 0 mm 3 m/S 760 mmHg 57%
11:00 +37°C° 0 mm 3 m/S 760 mmHg 49%
12:00 +38°C° 0 mm 4 m/S 760 mmHg 41%
13:00 +38°C° 0 mm 4 m/S 760 mmHg 44%
14:00 +38°C° 0 mm 4 m/S 759 mmHg 46%
15:00 +37°C° 0 mm 4 m/S 758 mmHg 48%
16:00 +36°C° 0 mm 5 m/S 758 mmHg 54%
17:00 +35°C° 0 mm 5 m/S 758 mmHg 61%
18:00 +33°C° 0 mm 5 m/S 758 mmHg 67%
19:00 +32°C° 0 mm 4 m/S 759 mmHg 70%
20:00 +30°C° 0 mm 4 m/S 759 mmHg 74%
21:00 +29°C° 0 mm 3 m/S 760 mmHg 77%
22:00 +28°C° 0 mm 3 m/S 760 mmHg 80%
23:00 +27°C° 0 mm 3 m/S 760 mmHg 83%

16 Juli, Donnerstag

Zeit Temperatur Niederschläge Wind Luftdruck Luftfeuchtigkeit
00:00 +27°C° 0 mm 2 m/S 760 mmHg 86%
01:00 +26°C° 0 mm 2 m/S 760 mmHg 89%
02:00 +26°C° 0 mm 2 m/S 760 mmHg 91%
03:00 +25°C° 0 mm 2 m/S 759 mmHg 94%
04:00 +25°C° 0 mm 2 m/S 760 mmHg 95%
05:00 +25°C° 0 mm 2 m/S 760 mmHg 96%
06:00 +25°C° 0 mm 2 m/S 760 mmHg 97%
07:00 +28°C° 0 mm 2 m/S 761 mmHg 85%
08:00 +30°C° 0 mm 2 m/S 761 mmHg 74%
09:00 +34°C° 0 mm 3 m/S 762 mmHg 63%
10:00 +35°C° 0 mm 3 m/S 761 mmHg 55%
11:00 +37°C° 0 mm 3 m/S 761 mmHg 47%
12:00 +40°C° 0 mm 4 m/S 760 mmHg 39%
13:00 +40°C° 0 mm 4 m/S 760 mmHg 40%
14:00 +40°C° 0 mm 4 m/S 759 mmHg 41%
15:00 +40°C° 0 mm 5 m/S 759 mmHg 42%
16:00 +37°C° 0 mm 5 m/S 759 mmHg 51%
17:00 +35°C° 0 mm 5 m/S 759 mmHg 60%
18:00 +33°C° 0 mm 5 m/S 759 mmHg 70%
19:00 +32°C° 0.1 mm 5 m/S 759 mmHg 75%
20:00 +29°C° 0.1 mm 4 m/S 760 mmHg 80%
21:00 +28°C° 0.1 mm 4 m/S 760 mmHg 86%
22:00 +28°C° 0 mm 3 m/S 760 mmHg 88%
23:00 +27°C° 0 mm 3 m/S 760 mmHg 90%

17 Juli, Freitag

Zeit Temperatur Niederschläge Wind Luftdruck Luftfeuchtigkeit
00:00 +27°C° 0 mm 3 m/S 760 mmHg 92%
01:00 +26°C° 0 mm 2 m/S 760 mmHg 94%
02:00 +26°C° 0 mm 2 m/S 760 mmHg 96%
03:00 +25°C° 0 mm 2 m/S 760 mmHg 98%
04:00 +25°C° 0 mm 1 m/S 760 mmHg 98%
05:00 +25°C° 0 mm 1 m/S 760 mmHg 98%
06:00 +25°C° 0 mm 1 m/S 760 mmHg 98%
07:00 +27°C° 0 mm 1 m/S 760 mmHg 86%
08:00 +30°C° 0 mm 1 m/S 761 mmHg 73%
09:00 +32°C° 0 mm 2 m/S 761 mmHg 61%
10:00 +35°C° 0 mm 2 m/S 761 mmHg 54%
11:00 +36°C° 0 mm 3 m/S 760 mmHg 47%
12:00 +37°C° 0 mm 3 m/S 760 mmHg 41%
13:00 +37°C° 0 mm 4 m/S 759 mmHg 43%
14:00 +37°C° 0 mm 4 m/S 759 mmHg 44%
15:00 +36°C° 0 mm 5 m/S 758 mmHg 46%
16:00 +35°C° 0 mm 5 m/S 758 mmHg 54%
17:00 +33°C° 0 mm 4 m/S 758 mmHg 62%
18:00 +32°C° 0 mm 4 m/S 758 mmHg 70%
19:00 +30°C° 0 mm 4 m/S 759 mmHg 74%
20:00 +28°C° 0 mm 3 m/S 759 mmHg 79%
21:00 +27°C° 0 mm 3 m/S 759 mmHg 83%
22:00 +27°C° 0 mm 3 m/S 759 mmHg 87%
23:00 +26°C° 0 mm 2 m/S 759 mmHg 91%

18 Juli, Samstag

Zeit Temperatur Niederschläge Wind Luftdruck Luftfeuchtigkeit
00:00 +25°C° 0 mm 2 m/S 759 mmHg 94%
01:00 +25°C° 0 mm 1 m/S 759 mmHg 95%
02:00 +25°C° 0 mm 1 m/S 758 mmHg 96%
03:00 +25°C° 0 mm 1 m/S 758 mmHg 96%
04:00 +25°C° 0 mm 1 m/S 758 mmHg 96%
05:00 +25°C° 0 mm 1 m/S 758 mmHg 96%
06:00 +26°C° 0 mm 1 m/S 758 mmHg 96%
07:00 +28°C° 0 mm 1 m/S 759 mmHg 83%
08:00 +30°C° 0 mm 1 m/S 759 mmHg 71%
09:00 +34°C° 0 mm 2 m/S 760 mmHg 59%
10:00 +35°C° 0 mm 2 m/S 759 mmHg 52%
11:00 +37°C° 0 mm 2 m/S 759 mmHg 46%
12:00 +38°C° 0 mm 3 m/S 759 mmHg 40%
13:00 +38°C° 0 mm 3 m/S 758 mmHg 42%
14:00 +38°C° 0 mm 4 m/S 758 mmHg 44%
15:00 +37°C° 0 mm 4 m/S 757 mmHg 45%
16:00 +36°C° 0.1 mm 4 m/S 757 mmHg 53%
17:00 +34°C° 0.1 mm 4 m/S 757 mmHg 61%
18:00 +32°C° 0.1 mm 4 m/S 757 mmHg 68%
19:00 +30°C° 0.1 mm 4 m/S 758 mmHg 73%
20:00 +29°C° 0.1 mm 3 m/S 758 mmHg 77%
21:00 +28°C° 0.1 mm 3 m/S 758 mmHg 82%
22:00 +27°C° 0 mm 2 m/S 758 mmHg 85%
23:00 +27°C° 0 mm 2 m/S 758 mmHg 87%
Mehr zeigen